Dupage Airport Chicago,West Chicago US
ICAO: KDPA
IATA: DPA
Category: Medium
Scheduled Services: No

Elevation: 759 ft
TransAlt. 18000 ft.

Airport Communications:
CHICAGO APP/DEP:133.5
ASOS:124.8
ATIS:124.8
CLNC DEL:119.75
GND:121.8
KANKAKEE RDO:122.3
TWR:120.9
UNICOM:122.95

KDPA Zoom In..

If you have problems with the map follow the link
https://www.worldairports.se/pages/airport.php?
ICAO=KDPA

Runways:

(A) RW 02L length 7571 ft width 100 ft
ILS 111.70 / hdg 15

(B) RW 02R length 6443 ft width 100 ft
---- / hdg 15

(C) RW 10 length 4750 ft width 75 ft
ILS 109.50 / hdg 97

(D) RW 15 length 3399 ft width 100 ft
---- / hdg 149

(E) RW 20L length 6443 ft width 100 ft
---- / hdg 195

(F) RW 20R length 7571 ft width 100 ft
---- / hdg 195

(G) RW 28 length 4750 ft width 75 ft
---- / hdg 277

(H) RW 33 length 3399 ft width 100 ft
---- / hdg 329

Location; KDPA
Day. 18 / Time. 23.52 Zulu
* Altimeter: 30.34
* Temperature: 09° c. 48.2°f.
* Wind from: 210° Speed 06 kn.
Dewpoint: -01° c.
Visibility: 10 Statute Miles.
Clouds: Clear (automated report).

KDPA 182352Z 21006KT 10SM CLR 09/M01 A3034 RMK AO2 SLP280 T00941011 10139 20094 56015


Wind From 210°
Speed 06 kn.

 
 
jpsmedia.com for Web Design worldairports.se 2018   terms of use